Location: Aubrey
(33.1990°N, 85.1361°W)
Time: 13:30:49
(UTC+00:00)

Tiangong - Visible Passes

Search period start: 24 September 2021 00:00
Search period end: 04 October 2021 00:00
Orbit: 382 x 385 km, 41.5° (Epoch: 24 September)

Date Brightness Start Highest point End Pass type
(mag) Time Alt. Az. Time Alt. Az. Time Alt. Az.
24 Sep 2.0 10:30:00 16° SW 10:32:12 42° SSE 10:35:13 10° ENE visible
25 Sep 3.6 09:33:20 19° ESE 09:33:20 19° ESE 09:34:54 10° E visible
25 Sep 1.5 11:05:59 10° W 11:09:04 50° NNW 11:12:09 10° NE visible
26 Sep 0.9 10:08:47 68° WSW 10:09:08 88° SE 10:12:18 10° ENE visible
27 Sep 4.5 09:11:56 12° ENE 09:11:56 12° ENE 09:12:17 10° ENE visible
27 Sep 2.2 10:44:09 16° WNW 10:46:08 31° NNW 10:49:01 10° NE visible
28 Sep 2.7 09:47:13 32° NNE 09:47:13 32° NNE 09:49:12 10° NE visible
29 Sep 2.7 10:22:26 21° NW 10:23:15 23° NNW 10:25:51 10° NE visible
30 Sep 4.2 09:25:25 14° NE 09:25:25 14° NE 09:26:01 10° NE visible
30 Sep 3.3 10:58:19 10° NW 11:00:34 18° N 11:02:48 10° NE visible
01 Oct 3.2 10:00:34 19° N 10:00:34 19° N 10:02:44 10° NE visible
02 Oct 3.3 10:35:43 12° NW 10:37:42 18° N 10:40:00 10° NE visible
03 Oct 3.9 09:38:40 15° NNE 09:38:40 15° NNE 09:39:45 10° NE visible
03 Oct 2.8 11:12:09 10° NW 11:14:56 27° NNE 11:17:43 10° ENE visible
